Location: Burera
(21.3780°N, 81.9534°E)
Time: 01:32:33
(UTC+00:00)

Cosmos 2084 Rocket - Pass Details

Date: 13 August 2020
Orbit: 549 x 632 km, 62.8° (Epoch: 22 September)

Event Time Altitude Azimuth Distance (km) Brightness Sun altitude
Rises 14:17:12 0° 195° (SSW) 2,701 6.8 -16.9°
Reaches altitude 10° 14:19:27 10° 189° (S) 1,813 5.8 -17.4°
Maximum altitude 14:23:22 48° 114° (ESE) 726 3.4 -18.3°
Drops below altitude 10° 14:27:21 10° 40° (NE) 1,843 5.8 -19.1°
Sets 14:29:39 0° 35° (NE) 2,751 6.8 -19.6°
